TimeEST,TemperatureF,Dew PointF,Humidity,Sea Level PressureIn,VisibilityMPH,Wind Direction,Wind SpeedMPH,Gust SpeedMPH,PrecipitationIn,Events,Conditions,WindDirDegrees,DateUTC
12:53 AM,26.1,23.0,88,30.38,10.0,Calm,Calm,-,N/A,,Clear,0,2013-01-05 05:53:00
1:53 AM,26.1,24.1,92,30.38,10.0,Calm,Calm,-,N/A,,Clear,0,2013-01-05 06:53:00
2:53 AM,26.1,23.0,88,30.38,10.0,Calm,Calm,-,N/A,,Clear,0,2013-01-05 07:53:00
3:53 AM,25.0,23.0,92,30.37,10.0,Calm,Calm,-,N/A,,Clear,0,2013-01-05 08:53:00
4:53 AM,25.0,23.0,92,30.36,10.0,Calm,Calm,-,N/A,,Clear,0,2013-01-05 09:53:00
5:53 AM,26.1,23.0,88,30.38,10.0,Calm,Calm,-,N/A,,Clear,0,2013-01-05 10:53:00
6:53 AM,26.1,24.1,92,30.39,10.0,Calm,Calm,-,N/A,,Clear,0,2013-01-05 11:53:00
7:53 AM,26.1,24.1,92,30.40,10.0,Calm,Calm,-,N/A,,Clear,0,2013-01-05 12:53:00
8:53 AM,28.9,26.1,89,30.40,10.0,Calm,Calm,-,N/A,,Clear,0,2013-01-05 13:53:00
9:53 AM,34.0,25.0,70,30.41,10.0,Calm,Calm,-,N/A,,Clear,0,2013-01-05 14:53:00
10:53 AM,36.0,25.0,64,30.40,10.0,Calm,Calm,-,N/A,,Clear,0,2013-01-05 15:53:00
11:53 AM,39.0,26.1,60,30.40,10.0,Calm,Calm,-,N/A,,Clear,0,2013-01-05 16:53:00
12:53 PM,41.0,27.0,57,30.36,10.0,Calm,Calm,-,N/A,,Clear,0,2013-01-05 17:53:00
1:53 PM,44.1,28.0,53,30.32,10.0,Calm,Calm,-,N/A,,Clear,0,2013-01-05 18:53:00
2:53 PM,45.0,28.0,52,30.29,10.0,Calm,Calm,-,N/A,,Clear,0,2013-01-05 19:53:00
3:53 PM,46.0,28.9,51,30.30,10.0,Calm,Calm,-,N/A,,Partly Cloudy,0,2013-01-05 20:53:00
4:53 PM,46.0,28.9,51,30.29,10.0,Calm,Calm,-,N/A,,Mostly Cloudy,0,2013-01-05 21:53:00
5:53 PM,43.0,34.0,71,30.30,10.0,Calm,Calm,-,N/A,,Mostly Cloudy,0,2013-01-05 22:53:00
6:53 PM,43.0,35.1,74,30.35,10.0,Calm,Calm,-,N/A,,Overcast,0,2013-01-05 23:53:00
7:53 PM,39.9,39.0,97,30.34,8.0,Calm,Calm,-,0.02,Rain,Light Rain,0,2013-01-06 00:53:00
8:53 PM,39.9,39.9,100,30.32,6.0,Calm,Calm,-,0.03,Rain,Light Rain,0,2013-01-06 01:53:00
9:53 PM,39.9,39.9,100,30.30,8.0,Calm,Calm,-,0.00,,Overcast,0,2013-01-06 02:53:00
10:14 PM,39.2,39.2,100,30.30,8.0,Calm,Calm,-,N/A,,Overcast,0,2013-01-06 03:14:00
10:53 PM,39.9,39.9,100,30.31,7.0,Calm,Calm,-,0.01,Rain,Light Rain,0,2013-01-06 03:53:00
11:25 PM,41.0,39.2,93,30.30,7.0,Calm,Calm,-,0.00,,Overcast,0,2013-01-06 04:25:00
11:53 PM,39.9,39.0,97,30.31,9.0,Calm,Calm,-,0.00,,Overcast,0,2013-01-06 04:53:00